KKP5477 YSSY-YBHM

Flight info

Callsign KKP5477
Flight time 2h 4m
Altitude 36000
Route GROOK1/16R RIC H530 LASUD Q238 DUPUG/N0466F350 Q141 ESKUT/N0467F360 Q141 OVRON
Aircraft A320/M-SDE3FGHIRWYZ/LB1

Departure

Time 2026-04-20 03:20
Airport Sydney Kingsford Smith International Airport (YSSY)

Arrival

Time 2026-04-20 05:25
Airport Hamilton Island Airport (YBHM)
Time Latitude Longitude Altitude Speed Heading
2026-04-20 03:12 -33.93626 151.18125 30 ft 0 kts 71°
2026-04-20 03:15 -33.93621 151.18126 28 ft 2 kts 25°
2026-04-20 03:15 -33.93631 151.18100 30 ft 5 kts 233°
2026-04-20 03:15 -33.93679 151.18053 30 ft 14 kts 197°
2026-04-20 03:15 -33.93773 151.18048 30 ft 14 kts 212°
2026-04-20 03:16 -33.93798 151.17936 30 ft 15 kts 259°
2026-04-20 03:16 -33.93830 151.17807 30 ft 17 kts 254°
2026-04-20 03:16 -33.93867 151.17663 29 ft 19 kts 254°
2026-04-20 03:16 -33.93897 151.17533 28 ft 0 kts 253°
2026-04-20 03:17 -33.93900 151.17524 28 ft 3 kts 251°
2026-04-20 03:17 -33.93904 151.17504 28 ft 7 kts 259°
2026-04-20 03:17 -33.93928 151.17422 26 ft 11 kts 225°
2026-04-20 03:18 -33.93947 151.17421 26 ft 2 kts 178°
2026-04-20 03:18 -33.93955 151.17423 26 ft 0 kts 169°
2026-04-20 03:19 -33.93956 151.17423 26 ft 1 kts 169°
2026-04-20 03:20 -33.94159 151.17474 28 ft 70 kts 167°
2026-04-20 03:20 -33.94881 151.17666 29 ft 138 kts 168°
2026-04-20 03:20 -33.95936 151.17954 396 ft 167 kts 166°
2026-04-20 03:20 -33.97165 151.18109 980 ft 190 kts 188°
2026-04-20 03:21 -33.98494 151.17684 1479 ft 206 kts 193°
2026-04-20 03:21 -33.99944 151.17376 2089 ft 218 kts 184°
2026-04-20 03:21 -34.01501 151.17368 2692 ft 233 kts 178°
2026-04-20 03:21 -34.03134 151.17560 3449 ft 240 kts 166°
2026-04-20 03:22 -34.04738 151.18160 4365 ft 243 kts 164°
2026-04-20 03:22 -34.06383 151.18740 4853 ft 249 kts 165°
2026-04-20 03:22 -34.08066 151.19250 5010 ft 248 kts 174°
2026-04-20 03:22 -34.09783 151.19028 5585 ft 252 kts 199°
2026-04-20 03:23 -34.11285 151.17925 6462 ft 258 kts 223°
2026-04-20 03:23 -34.12230 151.16064 7231 ft 269 kts 250°
2026-04-20 03:23 -34.12320 151.13770 8002 ft 284 kts 278°
2026-04-20 03:23 -34.11408 151.11620 8750 ft 299 kts 311°
2026-04-20 03:24 -34.09697 151.10154 9540 ft 306 kts 328°
2026-04-20 03:24 -34.07821 151.08912 10280 ft 312 kts 329°
2026-04-20 03:24 -34.05836 151.07638 10475 ft 335 kts 330°
2026-04-20 03:24 -34.03698 151.06274 10613 ft 358 kts 330°
2026-04-20 03:25 -34.01441 151.04823 10738 ft 380 kts 330°
2026-04-20 03:25 -33.99069 151.03286 11156 ft 389 kts 330°
2026-04-20 03:25 -33.96666 151.01720 11739 ft 394 kts 330°
2026-04-20 03:25 -33.94240 151.00134 12324 ft 398 kts 330°
2026-04-20 03:26 -33.91800 150.98537 12907 ft 401 kts 330°
2026-04-20 03:26 -33.89340 150.96928 13478 ft 404 kts 330°
2026-04-20 03:26 -33.86853 150.95306 14042 ft 408 kts 330°
2026-04-20 03:26 -33.84350 150.93674 14525 ft 411 kts 330°
2026-04-20 03:27 -33.81829 150.92030 15025 ft 414 kts 330°
2026-04-20 03:27 -33.79291 150.90374 15529 ft 416 kts 329°
2026-04-20 03:27 -33.76738 150.88707 16028 ft 419 kts 329°
2026-04-20 03:27 -33.74170 150.87031 16524 ft 422 kts 329°
2026-04-20 03:28 -33.71587 150.85348 17025 ft 424 kts 329°
2026-04-20 03:28 -33.68981 150.83656 17534 ft 427 kts 329°
2026-04-20 03:28 -33.63720 150.80246 18547 ft 433 kts 329°
2026-04-20 03:29 -33.61075 150.78490 18956 ft 435 kts 326°
2026-04-20 03:29 -33.58623 150.76358 19344 ft 436 kts 316°
2026-04-20 03:29 -33.56425 150.73852 19755 ft 437 kts 313°
2026-04-20 03:29 -33.54240 150.71297 20171 ft 441 kts 313°
2026-04-20 03:30 -33.52033 150.68734 20577 ft 444 kts 313°
2026-04-20 03:30 -33.49802 150.66153 20972 ft 447 kts 313°
2026-04-20 03:30 -33.47553 150.63556 21355 ft 450 kts 313°
2026-04-20 03:30 -33.45291 150.60947 21713 ft 453 kts 313°
2026-04-20 03:31 -33.43014 150.58321 22067 ft 456 kts 313°
2026-04-20 03:31 -33.40729 150.55682 22413 ft 458 kts 313°
2026-04-20 03:31 -33.38425 150.53024 22763 ft 462 kts 313°
2026-04-20 03:31 -33.36108 150.50348 23113 ft 464 kts 313°
2026-04-20 03:32 -33.33772 150.47656 23447 ft 467 kts 313°
2026-04-20 03:32 -33.31423 150.44956 23774 ft 470 kts 313°
2026-04-20 03:32 -33.29057 150.42242 24053 ft 473 kts 313°
2026-04-20 03:32 -33.26682 150.39516 24319 ft 475 kts 313°
2026-04-20 03:33 -33.24366 150.36856 24594 ft 477 kts 313°
2026-04-20 03:33 -33.21975 150.34107 24938 ft 477 kts 313°
2026-04-20 03:33 -33.19613 150.31397 25343 ft 476 kts 313°
2026-04-20 03:33 -33.17219 150.28657 25744 ft 476 kts 313°
2026-04-20 03:34 -33.14795 150.25887 26160 ft 476 kts 313°
2026-04-20 03:34 -33.12434 150.23196 26522 ft 476 kts 313°
2026-04-20 03:34 -33.10043 150.20463 26891 ft 476 kts 312°
2026-04-20 03:34 -33.07659 150.17731 27303 ft 476 kts 312°
2026-04-20 03:35 -33.05271 150.14999 27711 ft 475 kts 312°
2026-04-20 03:35 -33.02888 150.12273 28140 ft 475 kts 313°
2026-04-20 03:35 -33.00500 150.09556 28563 ft 475 kts 312°
2026-04-20 03:35 -32.98113 150.06841 28989 ft 474 kts 312°
2026-04-20 03:36 -32.95725 150.04127 29406 ft 474 kts 312°
2026-04-20 03:36 -32.93339 150.01415 29831 ft 474 kts 312°
2026-04-20 03:36 -32.90952 149.98705 30271 ft 474 kts 312°
2026-04-20 03:36 -32.88568 149.96002 30637 ft 474 kts 312°
2026-04-20 03:37 -32.86183 149.93300 30984 ft 474 kts 312°
2026-04-20 03:37 -32.83793 149.90591 31331 ft 474 kts 312°
2026-04-20 03:37 -32.81407 149.87891 31665 ft 474 kts 312°
2026-04-20 03:37 -32.79023 149.85197 32047 ft 473 kts 312°
2026-04-20 03:38 -32.76633 149.82500 32416 ft 473 kts 312°
2026-04-20 03:38 -32.74250 149.79811 32797 ft 472 kts 312°
2026-04-20 03:38 -32.71871 149.77124 33159 ft 472 kts 312°
2026-04-20 03:38 -32.69491 149.74433 33527 ft 472 kts 312°
2026-04-20 03:39 -32.67111 149.71748 33901 ft 472 kts 311°
2026-04-20 03:39 -32.64733 149.69067 34260 ft 471 kts 312°
2026-04-20 03:39 -32.62353 149.66391 34560 ft 471 kts 312°
2026-04-20 03:39 -32.59975 149.63726 34868 ft 471 kts 312°
2026-04-20 03:40 -32.57595 149.61063 35150 ft 470 kts 312°
2026-04-20 03:40 -32.55333 149.58286 35422 ft 465 kts 304°
2026-04-20 03:40 -32.53300 149.55323 35706 ft 463 kts 304°
2026-04-20 03:40 -32.51263 149.52355 35973 ft 463 kts 304°
2026-04-20 03:41 -32.49225 149.49401 36161 ft 463 kts 304°
2026-04-20 03:41 -32.47180 149.46442 36220 ft 467 kts 304°
2026-04-20 03:41 -32.43040 149.40456 36213 ft 478 kts 304°
2026-04-20 03:42 -32.38778 149.34312 36214 ft 481 kts 305°
2026-04-20 03:42 -32.35250 149.29230 36213 ft 481 kts 305°
2026-04-20 03:43 -32.30304 149.22117 36212 ft 481 kts 305°
2026-04-20 03:43 -32.26775 149.17040 36214 ft 481 kts 305°
2026-04-20 03:44 -32.22520 149.10939 36207 ft 481 kts 305°
2026-04-20 03:44 -32.18258 149.04839 36210 ft 481 kts 305°
2026-04-20 03:45 -32.13995 148.98745 36196 ft 481 kts 305°
2026-04-20 03:45 -32.09524 148.92862 36212 ft 486 kts 316°
2026-04-20 03:46 -32.03750 148.88685 36215 ft 492 kts 337°
2026-04-20 03:46 -31.97075 148.86954 36205 ft 494 kts 356°
2026-04-20 03:47 -31.90205 148.86470 36191 ft 495 kts 356°
2026-04-20 03:47 -31.83329 148.85970 36191 ft 495 kts 356°
2026-04-20 03:48 -31.76445 148.85464 36193 ft 496 kts 356°
2026-04-20 03:48 -31.69552 148.84969 36193 ft 496 kts 356°
2026-04-20 03:49 -31.62664 148.84476 36193 ft 496 kts 356°
2026-04-20 03:49 -31.55770 148.83977 36197 ft 496 kts 356°
2026-04-20 03:50 -31.48876 148.83486 36195 ft 496 kts 356°
2026-04-20 03:50 -31.41989 148.82998 36194 ft 496 kts 356°
2026-04-20 03:51 -31.35094 148.82514 36194 ft 496 kts 356°
2026-04-20 03:51 -31.28294 148.82032 36187 ft 496 kts 356°
2026-04-20 03:52 -31.21404 148.81537 36185 ft 496 kts 356°
2026-04-20 03:52 -31.14519 148.81038 36180 ft 496 kts 356°
2026-04-20 03:53 -31.07676 148.80554 36182 ft 495 kts 356°
2026-04-20 03:53 -31.00796 148.80068 36184 ft 495 kts 356°
2026-04-20 03:54 -30.93921 148.79575 36180 ft 495 kts 356°
2026-04-20 03:54 -30.87046 148.79090 36180 ft 495 kts 356°
2026-04-20 03:55 -30.80169 148.78612 36179 ft 495 kts 356°
2026-04-20 03:55 -30.73296 148.78127 36177 ft 495 kts 356°
2026-04-20 03:56 -30.66418 148.77640 36175 ft 495 kts 356°
2026-04-20 03:56 -30.59551 148.77159 36174 ft 494 kts 356°
2026-04-20 03:57 -30.52683 148.76683 36174 ft 494 kts 356°
2026-04-20 03:57 -30.45813 148.76207 36167 ft 494 kts 356°
2026-04-20 03:58 -30.38956 148.75722 36165 ft 494 kts 356°
2026-04-20 03:58 -30.32099 148.75234 36155 ft 493 kts 356°
2026-04-20 03:59 -30.25250 148.74746 36160 ft 493 kts 356°
2026-04-20 03:59 -30.18403 148.74277 36163 ft 493 kts 356°
2026-04-20 04:00 -30.11557 148.73813 36166 ft 492 kts 356°
2026-04-20 04:00 -30.04723 148.73334 36169 ft 492 kts 355°
2026-04-20 04:01 -29.97892 148.72848 36168 ft 492 kts 355°
2026-04-20 04:01 -29.91062 148.72380 36165 ft 492 kts 355°
2026-04-20 04:02 -29.84237 148.71920 36166 ft 491 kts 355°
2026-04-20 04:02 -29.77422 148.71445 36167 ft 490 kts 355°
2026-04-20 04:03 -29.70615 148.70966 36164 ft 490 kts 355°
2026-04-20 04:03 -29.63812 148.70493 36157 ft 490 kts 355°
2026-04-20 04:04 -29.57012 148.70031 36164 ft 489 kts 355°
2026-04-20 04:04 -29.50224 148.69573 36164 ft 489 kts 355°
2026-04-20 04:05 -29.43440 148.69112 36161 ft 488 kts 355°
2026-04-20 04:05 -29.36673 148.68654 36156 ft 488 kts 355°
2026-04-20 04:06 -29.29971 148.68187 36152 ft 488 kts 355°
2026-04-20 04:06 -29.23244 148.67716 36152 ft 488 kts 355°
2026-04-20 04:07 -29.16411 148.67243 36145 ft 488 kts 355°
2026-04-20 04:07 -29.09634 148.66786 36158 ft 487 kts 354°
2026-04-20 04:08 -29.02908 148.66336 36161 ft 487 kts 354°
2026-04-20 04:08 -28.96155 148.65881 36159 ft 486 kts 354°
2026-04-20 04:09 -28.89409 148.65424 36153 ft 485 kts 354°
2026-04-20 04:09 -28.82681 148.64965 36158 ft 484 kts 354°
2026-04-20 04:10 -28.75961 148.64504 36157 ft 483 kts 354°
2026-04-20 04:10 -28.69251 148.64047 36152 ft 483 kts 354°
2026-04-20 04:11 -28.62542 148.63600 36143 ft 482 kts 353°
2026-04-20 04:11 -28.55853 148.63146 36151 ft 481 kts 353°
2026-04-20 04:12 -28.49177 148.62691 36154 ft 480 kts 353°
2026-04-20 04:12 -28.42507 148.62246 36151 ft 480 kts 353°
2026-04-20 04:13 -28.35838 148.61799 36146 ft 479 kts 353°
2026-04-20 04:13 -28.29183 148.61355 36148 ft 479 kts 353°
2026-04-20 04:14 -28.22530 148.60913 36142 ft 479 kts 353°
2026-04-20 04:14 -28.15875 148.60470 36143 ft 479 kts 353°
2026-04-20 04:15 -28.09233 148.60021 36138 ft 478 kts 352°
2026-04-20 04:15 -28.02597 148.59578 36141 ft 477 kts 352°
2026-04-20 04:16 -27.95980 148.59138 36141 ft 476 kts 352°
2026-04-20 04:16 -27.89372 148.58700 36134 ft 475 kts 352°
2026-04-20 04:17 -27.82772 148.58260 36139 ft 475 kts 352°
2026-04-20 04:17 -27.76180 148.57818 36139 ft 474 kts 352°
2026-04-20 04:18 -27.69598 148.57382 36133 ft 474 kts 352°
2026-04-20 04:18 -27.63015 148.56945 36128 ft 474 kts 352°
2026-04-20 04:19 -27.56437 148.56511 36124 ft 473 kts 351°
2026-04-20 04:19 -27.49877 148.56076 36127 ft 472 kts 351°
2026-04-20 04:20 -27.43369 148.55645 36126 ft 471 kts 351°
2026-04-20 04:20 -27.36820 148.55208 36126 ft 471 kts 351°
2026-04-20 04:21 -27.30278 148.54777 36123 ft 471 kts 351°
2026-04-20 04:21 -27.23743 148.54347 36129 ft 470 kts 351°
2026-04-20 04:22 -27.17219 148.53921 36129 ft 469 kts 351°
2026-04-20 04:22 -27.10703 148.53497 36126 ft 469 kts 351°
2026-04-20 04:23 -27.04193 148.53070 36123 ft 467 kts 350°
2026-04-20 04:23 -26.97714 148.52648 36131 ft 466 kts 350°
2026-04-20 04:24 -26.91254 148.52225 36130 ft 465 kts 350°
2026-04-20 04:24 -26.84802 148.51804 36129 ft 464 kts 350°
2026-04-20 04:25 -26.78356 148.51385 36130 ft 464 kts 350°
2026-04-20 04:25 -26.71918 148.50965 36124 ft 464 kts 350°
2026-04-20 04:26 -26.65479 148.50542 36125 ft 463 kts 350°
2026-04-20 04:26 -26.59083 148.50125 36125 ft 464 kts 350°
2026-04-20 04:27 -26.52648 148.49703 36114 ft 463 kts 349°
2026-04-20 04:27 -26.46216 148.49287 36126 ft 463 kts 349°
2026-04-20 04:28 -26.39791 148.48878 36131 ft 462 kts 349°
2026-04-20 04:28 -26.33372 148.48460 36126 ft 462 kts 349°
2026-04-20 04:29 -26.26961 148.48039 36112 ft 461 kts 349°
2026-04-20 04:29 -26.20565 148.47621 36107 ft 460 kts 349°
2026-04-20 04:30 -26.14166 148.47216 36110 ft 460 kts 349°
2026-04-20 04:30 -26.07772 148.46806 36114 ft 460 kts 349°
2026-04-20 04:31 -26.01326 148.46828 36093 ft 472 kts
2026-04-20 04:31 -25.95928 148.47921 36122 ft 475 kts
2026-04-20 04:32 -25.89433 148.49289 36122 ft 475 kts
2026-04-20 04:32 -25.82950 148.50645 36120 ft 474 kts
2026-04-20 04:33 -25.76467 148.51989 36094 ft 474 kts
2026-04-20 04:33 -25.69992 148.53336 36108 ft 473 kts
2026-04-20 04:34 -25.63519 148.54676 36108 ft 473 kts
2026-04-20 04:34 -25.57049 148.56013 36112 ft 473 kts
2026-04-20 04:35 -25.50660 148.57343 36088 ft 473 kts
2026-04-20 04:35 -25.44194 148.58690 36099 ft 473 kts
2026-04-20 04:36 -25.34495 148.60689 36104 ft 472 kts
2026-04-20 04:37 -25.28034 148.62023 36068 ft 473 kts
2026-04-20 04:37 -25.21568 148.63352 36080 ft 472 kts
2026-04-20 04:38 -25.15146 148.64675 36091 ft 472 kts
2026-04-20 04:38 -25.08680 148.66009 36100 ft 473 kts
2026-04-20 04:39 -25.02219 148.67340 36070 ft 472 kts
2026-04-20 04:39 -24.95754 148.68669 36089 ft 472 kts
2026-04-20 04:40 -24.89293 148.69994 36092 ft 472 kts
2026-04-20 04:40 -24.82835 148.71311 36090 ft 472 kts
2026-04-20 04:41 -24.76369 148.72637 36052 ft 472 kts 359°
2026-04-20 04:41 -24.69906 148.73966 36078 ft 472 kts 359°
2026-04-20 04:42 -24.63398 148.75297 36090 ft 472 kts 359°
2026-04-20 04:42 -24.56937 148.76613 36112 ft 472 kts 359°
2026-04-20 04:43 -24.50528 148.77917 36065 ft 471 kts 359°
2026-04-20 04:43 -24.44082 148.79225 36083 ft 470 kts 359°
2026-04-20 04:44 -24.37648 148.80534 36091 ft 470 kts 359°
2026-04-20 04:44 -24.31216 148.81836 36099 ft 470 kts 359°
2026-04-20 04:45 -24.24780 148.83142 36102 ft 470 kts 359°
2026-04-20 04:45 -24.18343 148.84452 36101 ft 470 kts 359°
2026-04-20 04:46 -24.11912 148.85761 36097 ft 470 kts 359°
2026-04-20 04:46 -24.05485 148.87057 36099 ft 470 kts 359°
2026-04-20 04:47 -23.99058 148.88353 36065 ft 470 kts 359°
2026-04-20 04:47 -23.92630 148.89650 36089 ft 470 kts 359°
2026-04-20 04:48 -23.86203 148.90948 36097 ft 470 kts 359°
2026-04-20 04:48 -23.79779 148.92243 36096 ft 470 kts 359°
2026-04-20 04:49 -23.73354 148.93535 36052 ft 469 kts 358°
2026-04-20 04:49 -23.66929 148.94826 36077 ft 469 kts 358°
2026-04-20 04:50 -23.60520 148.96113 36091 ft 468 kts 358°
2026-04-20 04:50 -23.54115 148.97404 36093 ft 468 kts 358°
2026-04-20 04:51 -23.47711 148.98689 36091 ft 468 kts 358°
2026-04-20 04:51 -23.41391 148.99953 36067 ft 467 kts 358°
2026-04-20 04:52 -23.34993 149.01238 36077 ft 467 kts 358°
2026-04-20 04:52 -23.28599 149.02514 36084 ft 467 kts 358°
2026-04-20 04:53 -23.22200 149.03787 36091 ft 467 kts 358°
2026-04-20 04:53 -23.15805 149.05064 36082 ft 467 kts 358°
2026-04-20 04:54 -23.09414 149.06344 36090 ft 467 kts 358°
2026-04-20 04:54 -23.03035 149.07614 36093 ft 466 kts 358°
2026-04-20 04:55 -22.96655 149.08879 36095 ft 466 kts 358°
2026-04-20 04:55 -22.90279 149.10149 36071 ft 465 kts 358°
2026-04-20 04:56 -22.83918 149.11418 36085 ft 464 kts 357°
2026-04-20 04:56 -22.80761 149.11802 36089 ft 450 kts 349°
2026-04-20 04:56 -22.77679 149.11743 36092 ft 440 kts 345°
2026-04-20 04:57 -22.71558 149.11432 36096 ft 440 kts 345°
2026-04-20 04:57 -22.65440 149.11128 36051 ft 440 kts 345°
2026-04-20 04:58 -22.59327 149.10840 36074 ft 439 kts 345°
2026-04-20 04:58 -22.53224 149.10553 36086 ft 439 kts 345°
2026-04-20 04:59 -22.47160 149.10271 36095 ft 439 kts 345°
2026-04-20 04:59 -22.41026 149.09980 36096 ft 438 kts 344°
2026-04-20 05:00 -22.34977 149.09683 36070 ft 438 kts 344°
2026-04-20 05:00 -22.28885 149.09393 36078 ft 438 kts 344°
2026-04-20 05:01 -22.22789 149.09116 36088 ft 438 kts 345°
2026-04-20 05:01 -22.16702 149.08841 36080 ft 437 kts 344°
2026-04-20 05:02 -22.10605 149.08558 36092 ft 438 kts 344°
2026-04-20 05:02 -22.04473 149.08258 36058 ft 438 kts 345°
2026-04-20 05:03 -21.98406 149.07965 36067 ft 439 kts 345°
2026-04-20 05:03 -21.92294 149.07685 36080 ft 440 kts 345°
2026-04-20 05:04 -21.86262 149.07402 36086 ft 440 kts 345°
2026-04-20 05:04 -21.80145 149.07111 36061 ft 440 kts 345°
2026-04-20 05:05 -21.74017 149.06823 36063 ft 441 kts 345°
2026-04-20 05:05 -21.70939 149.06674 35842 ft 443 kts 345°
2026-04-20 05:05 -21.67866 149.06491 35130 ft 444 kts 344°
2026-04-20 05:05 -21.64768 149.06248 34352 ft 447 kts 343°
2026-04-20 05:06 -21.61654 149.05968 33455 ft 451 kts 343°
2026-04-20 05:06 -21.58524 149.05677 32634 ft 452 kts 344°
2026-04-20 05:06 -21.55379 149.05390 31774 ft 455 kts 345°
2026-04-20 05:06 -21.52213 149.05111 30922 ft 458 kts 345°
2026-04-20 05:07 -21.49030 149.04840 30061 ft 460 kts 346°
2026-04-20 05:07 -21.45836 149.04580 29022 ft 462 kts 346°
2026-04-20 05:07 -21.42623 149.04325 28033 ft 463 kts 347°
2026-04-20 05:07 -21.39408 149.04074 27060 ft 464 kts 347°
2026-04-20 05:08 -21.36227 149.03821 25995 ft 467 kts 347°
2026-04-20 05:08 -21.32968 149.03557 24898 ft 472 kts 348°
2026-04-20 05:08 -21.29686 149.03289 23874 ft 474 kts 348°
2026-04-20 05:08 -21.26396 149.03021 22895 ft 472 kts 349°
2026-04-20 05:09 -21.23148 149.02761 22092 ft 465 kts 349°
2026-04-20 05:09 -21.19945 149.02503 21318 ft 458 kts 349°
2026-04-20 05:09 -21.16780 149.02244 20528 ft 454 kts 349°
2026-04-20 05:09 -21.13644 149.01987 19745 ft 450 kts 350°
2026-04-20 05:10 -21.10536 149.01729 18974 ft 446 kts 350°
2026-04-20 05:10 -21.07407 149.01469 18179 ft 443 kts 351°
2026-04-20 05:10 -21.04347 149.01214 17380 ft 439 kts 351°
2026-04-20 05:10 -21.01352 149.00966 16647 ft 435 kts 351°
2026-04-20 05:11 -20.98309 149.00717 15891 ft 431 kts 352°
2026-04-20 05:11 -20.95366 149.00479 15181 ft 429 kts 352°
2026-04-20 05:11 -20.92360 149.00236 14467 ft 427 kts 353°
2026-04-20 05:11 -20.89443 148.99999 13788 ft 424 kts 353°
2026-04-20 05:12 -20.86511 148.99760 13081 ft 420 kts 353°
2026-04-20 05:12 -20.83618 148.99527 12442 ft 415 kts 353°
2026-04-20 05:12 -20.80754 148.99295 11816 ft 409 kts 353°
2026-04-20 05:12 -20.77938 148.99066 11397 ft 399 kts 354°
2026-04-20 05:13 -20.75239 148.98848 11268 ft 381 kts 354°
2026-04-20 05:13 -20.72653 148.98642 11146 ft 365 kts 354°
2026-04-20 05:13 -20.70170 148.98440 11024 ft 351 kts 354°
2026-04-20 05:13 -20.67776 148.98243 10907 ft 339 kts 354°
2026-04-20 05:14 -20.65464 148.98051 10779 ft 328 kts 354°
2026-04-20 05:14 -20.63225 148.97868 10650 ft 318 kts 354°
2026-04-20 05:14 -20.61036 148.97691 10447 ft 313 kts 354°
2026-04-20 05:14 -20.58871 148.97515 10313 ft 310 kts 354°
2026-04-20 05:15 -20.57413 148.97395 10222 ft 311 kts 354°
2026-04-20 05:15 -20.54556 148.97160 10013 ft 311 kts 354°
2026-04-20 05:15 -20.52370 148.96980 9447 ft 317 kts 355°
2026-04-20 05:15 -20.50890 148.96860 9306 ft 313 kts 355°
2026-04-20 05:16 -20.48727 148.96688 8923 ft 310 kts 355°
2026-04-20 05:16 -20.46576 148.96515 8296 ft 309 kts 356°
2026-04-20 05:16 -20.44445 148.96341 7727 ft 306 kts 356°
2026-04-20 05:16 -20.42320 148.96166 7051 ft 307 kts 357°
2026-04-20 05:17 -20.40174 148.95993 6261 ft 312 kts 358°
2026-04-20 05:17 -20.38001 148.95819 5457 ft 315 kts 358°
2026-04-20 05:17 -20.35853 148.95660 5140 ft 298 kts
2026-04-20 05:17 -20.33885 148.95878 5045 ft 273 kts 17°
2026-04-20 05:18 -20.32106 148.96319 4943 ft 253 kts 17°
2026-04-20 05:18 -20.30443 148.96725 4826 ft 237 kts 18°
2026-04-20 05:18 -20.28866 148.97112 4733 ft 229 kts 18°
2026-04-20 05:18 -20.27352 148.97487 4637 ft 217 kts 18°
2026-04-20 05:19 -20.25874 148.97600 4389 ft 212 kts 358°
2026-04-20 05:19 -20.24482 148.97155 4060 ft 207 kts 337°
2026-04-20 05:19 -20.23355 148.96244 3793 ft 201 kts 314°
2026-04-20 05:19 -20.22614 148.95069 3559 ft 184 kts 294°
2026-04-20 05:20 -20.22271 148.93814 3315 ft 172 kts 275°
2026-04-20 05:20 -20.22277 148.92561 3094 ft 168 kts 256°
2026-04-20 05:20 -20.22600 148.91386 2880 ft 162 kts 239°
2026-04-20 05:20 -20.23183 148.90389 2682 ft 156 kts 223°
2026-04-20 05:21 -20.23962 148.89610 2480 ft 151 kts 207°
2026-04-20 05:21 -20.24861 148.89089 2294 ft 146 kts 193°
2026-04-20 05:21 -20.25822 148.88821 2118 ft 141 kts 178°
2026-04-20 05:21 -20.26771 148.88796 1943 ft 133 kts 166°
2026-04-20 05:22 -20.27654 148.88986 1767 ft 131 kts 156°
2026-04-20 05:22 -20.28484 148.89376 1605 ft 131 kts 145°
2026-04-20 05:22 -20.29218 148.89929 1438 ft 129 kts 140°
2026-04-20 05:22 -20.29931 148.90500 1277 ft 128 kts 140°
2026-04-20 05:23 -20.30637 148.91067 1107 ft 127 kts 139°
2026-04-20 05:23 -20.31341 148.91631 954 ft 126 kts 139°
2026-04-20 05:23 -20.32043 148.92195 791 ft 127 kts 140°
2026-04-20 05:23 -20.32748 148.92760 639 ft 127 kts 140°
2026-04-20 05:24 -20.33448 148.93334 493 ft 126 kts 139°
2026-04-20 05:24 -20.34151 148.93892 303 ft 126 kts 141°
2026-04-20 05:24 -20.34853 148.94449 145 ft 126 kts 141°
2026-04-20 05:24 -20.35523 148.94990 25 ft 106 kts 145°
2026-04-20 05:25 -20.35990 148.95361 20 ft 64 kts 142°
2026-04-20 05:25 -20.36177 148.95511 21 ft 24 kts 143°
2026-04-20 05:25 -20.36308 148.95615 22 ft 22 kts 143°
2026-04-20 05:25 -20.36413 148.95658 22 ft 12 kts 102°
2026-04-20 05:26 -20.36379 148.95668 23 ft 11 kts 330°
2026-04-20 05:26 -20.36298 148.95608 22 ft 16 kts 323°
2026-04-20 05:26 -20.36202 148.95531 21 ft 19 kts 323°
2026-04-20 05:26 -20.36095 148.95444 21 ft 20 kts 322°
2026-04-20 05:27 -20.35974 148.95355 24 ft 22 kts 328°
2026-04-20 05:27 -20.35859 148.95250 22 ft 22 kts 316°
2026-04-20 05:27 -20.35732 148.95147 25 ft 24 kts 325°
2026-04-20 05:27 -20.35593 148.95042 24 ft 25 kts 322°
2026-04-20 05:28 -20.35458 148.94933 22 ft 20 kts 327°
2026-04-20 05:28 -20.35388 148.94969 22 ft 10 kts 56°
2026-04-20 05:28 -20.35354 148.95039 20 ft 10 kts 52°
2026-04-20 05:28 -20.35343 148.95045 20 ft 2 kts 25°
2026-04-20 05:29 -20.35333 148.95050 20 ft 0 kts 26°
2026-04-20 05:31 -20.35333 148.95049 20 ft 0 kts 26°